Location: Filler
(36.7551°N, 30.4456°E)
Time: 07:52:32
(UTC+00:00)

FENGYUN 3A - Pass Details

Date: 19 June 2024
Orbit: 822 x 834 km, 98.6° (Epoch: 22 July)

Event Time Altitude Azimuth Distance (km) Brightness Sun altitude
Rises 00:42:13 0° 7° (N) 3,366 7.8 -18.7°
Reaches altitude 10° 00:44:37 10° 3° (N) 2,431 6.9 -18.4°
Maximum altitude 00:49:50 53° 288° (WNW) 1,005 3.9 -17.7°
Enters shadow 00:52:21 29° 225° (SW) 1,469 4.4 -17.3°
